GFSFLT2_prec_precacc_216.txt.gz
Total_Precipitation_Accumulation
6.13 3.90 3.36 3.60 2.45 2.37 3.32 3.33 2.82 1.83 1.41 1.21 1.34 1.00 0.86 0.72 0.55 0.51 0.45 0.42 0.54 0.56 0.66 0.68 0.55 0.42 0.34 0.32 0.38 0.41 0.43 0.59
7.15 5.19 3.20 1.76 2.49 2.24 2.24 3.06 3.68 2.41 1.93 1.76 1.43 1.27 1.06 0.69 0.51 0.54 0.74 0.70 0.46 0.33 0.44 0.52 0.47 0.33 0.27 0.32 0.41 0.65 0.44 0.51
6.68 6.43 4.00 2.74 2.49 2.36 1.80 1.70 2.69 3.65 2.49 2.07 1.77 1.04 1.04 0.80 0.83 0.79 0.81 0.72 0.71 0.64 0.54 0.47 0.43 0.32 0.30 0.55 0.50 0.42 0.51 0.42
2.96 3.27 3.04 2.35 3.00 3.05 1.71 1.39 1.17 2.64 2.93 2.17 1.60 1.02 1.03 0.95 0.71 0.77 0.84 0.76 0.84 0.81 0.77 0.61 0.44 0.23 0.20 0.28 0.31 0.69 0.77 0.78
1.26 1.52 1.48 1.52 2.02 1.63 1.51 1.28 1.07 1.35 2.54 2.03 1.32 0.92 0.87 1.15 0.61 0.70 1.07 1.14 0.89 0.73 0.56 0.51 0.39 0.31 0.16 0.15 0.24 0.32 0.41 0.72
1.03 0.81 1.02 1.17 1.43 1.44 1.11 1.12 1.02 0.96 1.81 1.85 1.26 0.90 0.62 0.73 0.39 0.48 1.07 1.05 0.79 0.62 0.39 0.42 0.46 0.47 0.30 0.32 0.31 0.40 0.33 0.60
0.98 0.78 0.81 0.84 0.71 0.82 0.79 0.73 0.94 0.89 0.97 1.56 1.34 0.81 0.47 0.51 0.46 0.49 0.87 0.82 0.89 0.54 0.48 0.56 0.53 0.54 0.46 0.33 0.22 0.47 0.47 0.57
1.01 1.22 0.86 0.89 0.66 0.62 0.62 0.57 0.79 1.04 0.87 1.10 1.57 0.96 0.63 0.66 0.56 0.46 0.63 0.62 0.69 0.60 0.34 0.49 0.63 0.54 0.52 0.35 0.11 0.33 0.47 0.70
1.14 1.62 1.20 1.05 0.62 0.68 0.68 0.73 0.70 0.80 0.93 1.22 1.34 1.05 0.80 0.69 0.70 0.54 0.47 0.47 0.44 0.55 0.53 0.53 0.54 0.55 0.48 0.46 0.27 0.17 0.22 0.51
1.32 1.42 0.99 1.08 0.85 0.95 1.35 0.77 0.53 0.67 0.78 0.92 1.05 1.08 0.88 0.81 0.72 0.57 0.56 0.46 0.31 0.43 0.34 0.44 0.48 0.43 0.36 0.35 0.29 0.16 0.10 0.22
0.89 0.98 0.99 1.34 1.65 1.72 1.24 0.68 0.47 0.70 0.65 0.67 0.87 1.23 0.94 0.82 0.77 0.57 0.64 0.62 0.36 0.35 0.33 0.36 0.40 0.38 0.31 0.35 0.38 0.25 0.15 0.16
0.76 0.84 1.33 1.82 1.59 0.81 0.51 0.53 0.55 0.66 0.56 0.60 0.78 1.40 1.13 0.98 0.97 0.87 0.79 0.61 0.52 0.55 0.48 0.45 0.39 0.30 0.36 0.39 0.30 0.31 0.29 0.29
0.70 0.86 0.73 0.56 0.47 0.46 0.42 0.43 0.34 0.38 0.37 0.55 0.72 1.14 1.32 1.09 1.09 1.04 0.98 0.79 0.58 0.48 0.56 0.70 0.58 0.57 0.77 0.71 0.46 0.43 0.43 0.37
0.41 0.33 0.20 0.20 0.18 0.29 0.34 0.37 0.31 0.25 0.32 0.44 1.00 1.07 1.14 1.11 1.11 0.96 0.87 1.04 1.14 1.06 0.88 0.82 0.63 0.74 0.75 0.77 0.89 0.91 0.41 0.34
0.09 0.15 0.10 0.21 0.24 0.25 0.31 0.47 0.59 0.50 0.41 0.42 0.73 0.79 0.89 0.88 1.09 1.07 1.03 1.18 1.34 1.20 1.08 1.02 1.10 1.13 0.68 0.81 0.85 0.82 0.70 0.47
0.12 0.13 0.19 0.22 0.34 0.16 0.31 0.25 0.26 0.24 0.26 0.28 0.51 0.64 0.71 0.76 0.74 1.10 0.97 1.23 1.47 1.41 1.24 1.05 1.23 1.27 1.20 0.91 0.72 0.63 0.59 0.55
0.09 0.13 0.26 0.28 0.27 0.21 0.37 0.32 0.23 0.20 0.27 0.36 0.47 0.62 0.58 0.77 0.91 0.92 1.18 1.43 1.51 1.56 1.74 1.59 1.38 1.21 1.00 0.84 0.88 0.83 0.64 0.67
0.12 0.13 0.14 0.30 0.36 0.41 0.49 0.65 0.49 0.32 0.25 0.27 0.37 0.55 0.50 0.73 1.10 1.32 1.24 1.27 1.64 1.60 1.76 1.77 1.83 1.73 1.44 1.15 0.80 0.81 0.70 0.71
0.18 0.10 0.16 0.23 0.42 0.57 0.61 1.10 1.26 1.17 0.75 0.44 0.54 0.63 0.50 0.54 0.89 1.36 1.53 1.50 1.63 1.87 1.83 2.00 2.03 1.98 1.87 1.62 1.30 0.97 0.72 0.75
0.39 0.22 0.28 0.31 0.47 0.73 0.76 0.82 1.08 1.79 1.94 1.97 1.59 1.14 0.91 0.84 1.04 1.30 1.55 1.56 1.58 1.68 2.03 2.12 2.25 2.48 2.19 2.05 1.74 1.27 1.07 1.13

GFSFLT2_prec_precacc_222.txt.gz
Total_Precipitation_Accumulation
6.13 3.90 3.37 3.60 2.46 2.37 3.32 3.33 2.82 1.83 1.41 1.21 1.34 1.00 0.86 0.72 0.55 0.51 0.45 0.42 0.54 0.56 0.66 0.68 0.55 0.42 0.34 0.32 0.38 0.41 0.43 0.59
7.15 5.19 3.21 1.77 2.50 2.25 2.25 3.07 3.69 2.41 1.93 1.76 1.43 1.27 1.06 0.69 0.51 0.54 0.74 0.70 0.46 0.33 0.44 0.52 0.47 0.33 0.27 0.32 0.41 0.65 0.44 0.51
6.69 6.43 4.00 2.74 2.50 2.37 1.81 1.71 2.73 3.67 2.49 2.07 1.77 1.04 1.04 0.80 0.83 0.79 0.81 0.72 0.71 0.64 0.54 0.47 0.43 0.32 0.30 0.55 0.50 0.42 0.51 0.42
2.96 3.28 3.05 2.35 3.01 3.06 1.72 1.40 1.18 2.65 2.94 2.17 1.60 1.02 1.03 0.95 0.73 0.77 0.84 0.76 0.84 0.81 0.77 0.61 0.44 0.23 0.20 0.28 0.31 0.69 0.77 0.78
1.26 1.53 1.48 1.52 2.02 1.63 1.53 1.32 1.12 1.40 2.56 2.03 1.33 0.92 0.87 1.15 0.63 0.70 1.07 1.14 0.89 0.73 0.56 0.51 0.39 0.31 0.16 0.15 0.24 0.32 0.41 0.72
1.04 0.81 1.03 1.18 1.44 1.45 1.11 1.13 1.08 1.03 1.86 1.85 1.27 0.91 0.62 0.73 0.39 0.48 1.07 1.05 0.79 0.62 0.39 0.42 0.46 0.47 0.30 0.32 0.31 0.40 0.33 0.60
0.98 0.78 0.81 0.86 0.72 0.83 0.80 0.74 0.95 0.91 1.01 1.57 1.34 0.81 0.47 0.51 0.46 0.49 0.87 0.82 0.89 0.54 0.48 0.56 0.53 0.54 0.46 0.33 0.22 0.47 0.47 0.57
1.01 1.22 0.86 0.90 0.68 0.63 0.63 0.58 0.80 1.05 0.88 1.10 1.58 0.97 0.63 0.66 0.56 0.46 0.65 0.63 0.69 0.60 0.34 0.49 0.63 0.54 0.52 0.35 0.11 0.33 0.47 0.70
1.14 1.62 1.20 1.06 0.63 0.69 0.69 0.74 0.71 0.81 0.94 1.22 1.35 1.06 0.81 0.69 0.70 0.54 0.51 0.50 0.45 0.55 0.53 0.53 0.54 0.55 0.48 0.46 0.27 0.17 0.22 0.51
1.32 1.42 0.99 1.08 0.86 0.96 1.37 0.78 0.55 0.68 0.79 0.93 1.07 1.11 0.89 0.81 0.72 0.58 0.60 0.50 0.33 0.43 0.34 0.44 0.48 0.43 0.36 0.35 0.29 0.16 0.10 0.22
0.89 0.98 0.99 1.34 1.66 1.73 1.25 0.70 0.49 0.72 0.66 0.69 0.89 1.24 0.94 0.82 0.77 0.57 0.67 0.65 0.39 0.37 0.33 0.36 0.40 0.38 0.31 0.35 0.38 0.25 0.15 0.16
0.76 0.84 1.33 1.82 1.59 0.82 0.54 0.57 0.58 0.68 0.57 0.60 0.78 1.40 1.14 0.98 0.97 0.88 0.83 0.63 0.53 0.57 0.48 0.46 0.39 0.30 0.36 0.39 0.30 0.31 0.29 0.29
0.70 0.86 0.73 0.56 0.47 0.47 0.44 0.46 0.36 0.39 0.37 0.55 0.73 1.15 1.34 1.11 1.10 1.05 1.02 0.81 0.64 0.52 0.58 0.72 0.59 0.57 0.77 0.71 0.46 0.43 0.43 0.37
0.41 0.33 0.20 0.20 0.19 0.30 0.35 0.38 0.32 0.26 0.32 0.44 1.01 1.08 1.15 1.12 1.11 0.96 0.90 1.06 1.15 1.07 0.88 0.83 0.63 0.74 0.75 0.77 0.89 0.91 0.41 0.34
0.09 0.15 0.10 0.21 0.24 0.26 0.33 0.55 0.69 0.58 0.42 0.42 0.73 0.79 0.90 0.88 1.10 1.08 1.03 1.19 1.37 1.23 1.09 1.03 1.13 1.13 0.68 0.81 0.85 0.82 0.70 0.47
0.12 0.13 0.19 0.22 0.34 0.17 0.31 0.25 0.26 0.24 0.27 0.29 0.52 0.64 0.71 0.76 0.75 1.11 0.98 1.24 1.48 1.43 1.27 1.08 1.24 1.27 1.20 0.91 0.72 0.63 0.59 0.55
0.09 0.13 0.26 0.28 0.30 0.22 0.39 0.34 0.24 0.20 0.28 0.38 0.50 0.65 0.60 0.78 0.92 0.93 1.18 1.44 1.52 1.57 1.74 1.59 1.38 1.21 1.00 0.84 0.88 0.83 0.64 0.67
0.12 0.13 0.14 0.30 0.37 0.46 0.53 0.71 0.50 0.33 0.26 0.29 0.40 0.58 0.54 0.77 1.12 1.33 1.24 1.28 1.64 1.61 1.78 1.78 1.84 1.73 1.44 1.15 0.80 0.81 0.70 0.71
0.18 0.10 0.16 0.23 0.42 0.63 0.75 1.13 1.27 1.18 0.76 0.45 0.56 0.67 0.55 0.59 0.92 1.40 1.55 1.53 1.65 1.88 1.83 2.01 2.04 1.98 1.87 1.63 1.30 0.97 0.72 0.75
0.39 0.22 0.28 0.31 0.47 0.78 0.93 0.97 1.16 1.82 1.95 1.98 1.59 1.15 0.93 0.85 1.06 1.32 1.58 1.58 1.61 1.71 2.04 2.13 2.26 2.49 2.19 2.05 1.74 1.27 1.08 1.13

GFSFLT2_prec_precacc_225.txt.gz
Total_Precipitation_Accumulation
6.13 3.90 3.37 3.60 2.46 2.37 3.32 3.33 2.82 1.83 1.41 1.21 1.34 1.00 0.86 0.72 0.55 0.51 0.46 0.42 0.54 0.56 0.66 0.68 0.55 0.42 0.34 0.32 0.38 0.41 0.43 0.59
7.15 5.19 3.21 1.77 2.50 2.25 2.25 3.07 3.69 2.41 1.93 1.76 1.43 1.27 1.06 0.69 0.51 0.54 0.74 0.70 0.46 0.33 0.44 0.52 0.47 0.33 0.27 0.32 0.41 0.65 0.44 0.51
6.69 6.44 4.00 2.74 2.50 2.37 1.81 1.71 2.73 3.67 2.49 2.07 1.77 1.04 1.04 0.80 0.83 0.79 0.81 0.72 0.71 0.64 0.54 0.47 0.43 0.32 0.30 0.55 0.50 0.42 0.51 0.42
2.96 3.28 3.05 2.35 3.01 3.06 1.72 1.40 1.18 2.65 2.94 2.17 1.60 1.02 1.03 0.95 0.74 0.78 0.84 0.76 0.84 0.81 0.77 0.61 0.44 0.23 0.20 0.28 0.31 0.69 0.77 0.78
1.26 1.53 1.48 1.52 2.03 1.63 1.53 1.32 1.12 1.41 2.57 2.03 1.33 0.92 0.87 1.17 0.63 0.70 1.07 1.14 0.89 0.73 0.56 0.51 0.39 0.31 0.16 0.15 0.24 0.32 0.41 0.72
1.04 0.81 1.03 1.18 1.44 1.45 1.12 1.13 1.08 1.03 1.86 1.85 1.27 0.91 0.63 0.78 0.41 0.48 1.07 1.05 0.79 0.62 0.39 0.42 0.46 0.47 0.30 0.32 0.31 0.40 0.33 0.60
0.98 0.78 0.81 0.86 0.72 0.83 0.80 0.74 0.95 0.91 1.02 1.57 1.34 0.81 0.47 0.54 0.46 0.49 0.87 0.82 0.89 0.54 0.48 0.56 0.53 0.54 0.46 0.33 0.22 0.47 0.47 0.57
1.01 1.22 0.86 0.90 0.68 0.63 0.63 0.58 0.80 1.05 0.88 1.10 1.58 0.97 0.63 0.67 0.56 0.46 0.65 0.63 0.69 0.60 0.34 0.49 0.63 0.54 0.52 0.35 0.11 0.33 0.47 0.70
1.14 1.62 1.20 1.06 0.63 0.69 0.69 0.74 0.71 0.81 0.94 1.22 1.35 1.06 0.81 0.69 0.70 0.54 0.51 0.50 0.45 0.55 0.53 0.53 0.54 0.55 0.48 0.46 0.27 0.17 0.22 0.51
1.32 1.42 0.99 1.08 0.86 0.97 1.37 0.78 0.55 0.69 0.79 0.93 1.11 1.13 0.89 0.82 0.72 0.58 0.60 0.50 0.33 0.43 0.34 0.44 0.48 0.43 0.36 0.35 0.29 0.16 0.10 0.22
0.89 0.98 0.99 1.34 1.66 1.73 1.26 0.70 0.50 0.72 0.67 0.69 0.91 1.26 0.94 0.82 0.77 0.57 0.68 0.66 0.39 0.37 0.33 0.36 0.40 0.38 0.31 0.35 0.38 0.25 0.15 0.16
0.76 0.84 1.33 1.83 1.61 0.83 0.54 0.58 0.59 0.69 0.57 0.60 0.78 1.40 1.14 0.98 0.97 0.88 0.85 0.64 0.53 0.57 0.48 0.48 0.40 0.30 0.36 0.39 0.30 0.31 0.29 0.29
0.70 0.86 0.80 0.62 0.49 0.48 0.45 0.47 0.36 0.40 0.37 0.55 0.73 1.15 1.34 1.12 1.10 1.05 1.03 0.84 0.67 0.54 0.59 0.74 0.61 0.57 0.77 0.71 0.46 0.43 0.43 0.37
0.41 0.34 0.23 0.21 0.19 0.30 0.35 0.38 0.32 0.26 0.32 0.44 1.01 1.09 1.16 1.12 1.11 0.96 0.90 1.08 1.17 1.07 0.89 0.84 0.65 0.74 0.75 0.77 0.89 0.91 0.41 0.34
0.09 0.16 0.13 0.24 0.27 0.31 0.34 0.56 0.72 0.58 0.43 0.44 0.74 0.80 0.91 0.88 1.10 1.08 1.03 1.20 1.40 1.28 1.11 1.05 1.16 1.15 0.68 0.81 0.85 0.82 0.70 0.47
0.12 0.13 0.22 0.31 0.44 0.25 0.39 0.30 0.27 0.25 0.27 0.30 0.53 0.65 0.75 0.79 0.76 1.11 0.98 1.24 1.49 1.45 1.29 1.08 1.25 1.27 1.20 0.91 0.72 0.63 0.59 0.55
0.09 0.13 0.30 0.44 0.68 0.57 0.65 0.58 0.36 0.33 0.29 0.40 0.56 0.68 0.63 0.84 0.97 0.94 1.19 1.45 1.53 1.60 1.76 1.60 1.38 1.21 1.00 0.84 0.88 0.83 0.64 0.67
0.12 0.13 0.14 0.30 0.42 0.69 0.97 1.08 0.79 0.53 0.31 0.31 0.45 0.64 0.59 0.81 1.16 1.36 1.26 1.30 1.65 1.63 1.82 1.80 1.84 1.73 1.44 1.15 0.80 0.81 0.70 0.71
0.18 0.10 0.16 0.23 0.42 0.63 0.84 1.34 1.47 1.39 0.90 0.59 0.66 0.70 0.57 0.61 0.95 1.43 1.57 1.54 1.67 1.90 1.88 2.03 2.04 1.98 1.87 1.63 1.30 0.97 0.72 0.75
0.39 0.22 0.28 0.31 0.47 0.78 0.95 1.08 1.39 2.11 2.12 2.07 1.67 1.21 0.97 0.88 1.08 1.36 1.61 1.60 1.62 1.72 2.06 2.16 2.28 2.49 2.19 2.06 1.74 1.27 1.08 1.13

GFSFLT2_prec_precacc_231.txt.gz
Total_Precipitation_Accumulation
6.13 3.90 3.37 3.60 2.46 2.38 3.32 3.33 2.82 1.83 1.41 1.21 1.34 1.00 0.86 0.72 0.55 0.51 0.46 0.43 0.54 0.56 0.66 0.68 0.55 0.42 0.34 0.32 0.38 0.41 0.43 0.59
7.15 5.19 3.21 1.77 2.50 2.26 2.25 3.07 3.69 2.41 1.93 1.76 1.43 1.27 1.06 0.69 0.51 0.55 0.74 0.70 0.46 0.33 0.44 0.52 0.47 0.33 0.27 0.32 0.41 0.65 0.44 0.51
6.69 6.44 4.00 2.74 2.50 2.37 1.82 1.71 2.73 3.67 2.49 2.07 1.77 1.04 1.04 0.80 0.83 0.79 0.81 0.72 0.71 0.64 0.54 0.47 0.43 0.32 0.30 0.55 0.50 0.42 0.51 0.42
2.96 3.28 3.05 2.36 3.01 3.06 1.72 1.40 1.18 2.66 2.94 2.18 1.60 1.02 1.03 0.95 0.74 0.78 0.84 0.76 0.84 0.81 0.77 0.61 0.44 0.23 0.20 0.28 0.31 0.69 0.77 0.78
1.26 1.53 1.48 1.52 2.03 1.64 1.53 1.32 1.12 1.41 2.57 2.03 1.33 0.92 0.87 1.17 0.63 0.70 1.07 1.14 0.89 0.73 0.56 0.51 0.39 0.31 0.16 0.15 0.24 0.32 0.41 0.72
1.04 0.82 1.03 1.18 1.44 1.46 1.12 1.14 1.08 1.04 1.87 1.85 1.27 0.91 0.63 0.78 0.42 0.48 1.07 1.05 0.79 0.62 0.39 0.42 0.46 0.47 0.30 0.32 0.31 0.40 0.33 0.60
0.98 0.78 0.81 0.86 0.72 0.83 0.80 0.74 0.96 0.92 1.02 1.58 1.35 0.81 0.47 0.54 0.46 0.50 0.89 0.84 0.89 0.54 0.48 0.56 0.53 0.54 0.46 0.33 0.22 0.47 0.47 0.57
1.01 1.22 0.86 0.90 0.68 0.63 0.63 0.58 0.80 1.06 0.88 1.10 1.58 0.97 0.63 0.68 0.59 0.50 0.74 0.74 0.72 0.60 0.34 0.49 0.63 0.54 0.52 0.35 0.11 0.33 0.47 0.70
1.14 1.62 1.20 1.06 0.63 0.69 0.69 0.74 0.71 0.82 0.94 1.22 1.35 1.06 0.81 0.71 0.75 0.61 0.62 0.67 0.51 0.55 0.53 0.53 0.54 0.55 0.48 0.46 0.27 0.17 0.22 0.51
1.32 1.42 0.99 1.08 0.86 0.97 1.37 0.78 0.55 0.69 0.80 0.93 1.11 1.13 0.89 0.82 0.78 0.68 0.74 0.65 0.44 0.43 0.34 0.44 0.48 0.43 0.36 0.35 0.29 0.16 0.10 0.22
0.89 0.98 0.99 1.34 1.66 1.73 1.26 0.71 0.50 0.72 0.67 0.69 0.91 1.26 0.94 0.83 0.80 0.68 0.77 0.71 0.47 0.39 0.33 0.36 0.40 0.38 0.31 0.35 0.38 0.25 0.15 0.16
0.76 0.84 1.33 1.83 1.62 0.86 0.61 0.63 0.62 0.71 0.58 0.60 0.78 1.40 1.14 1.00 0.99 0.95 0.93 0.68 0.57 0.59 0.48 0.48 0.40 0.30 0.36 0.39 0.30 0.31 0.29 0.29
0.70 0.86 0.80 0.63 0.49 0.49 0.47 0.48 0.37 0.42 0.38 0.56 0.73 1.15 1.35 1.12 1.11 1.10 1.08 0.88 0.76 0.61 0.62 0.74 0.61 0.57 0.77 0.71 0.46 0.43 0.43 0.37
0.41 0.34 0.23 0.21 0.19 0.31 0.37 0.41 0.33 0.29 0.36 0.46 1.02 1.09 1.16 1.12 1.11 0.97 0.99 1.19 1.23 1.15 0.91 0.85 0.65 0.74 0.75 0.77 0.89 0.91 0.41 0.34
0.09 0.16 0.13 0.24 0.27 0.35 0.53 0.90 0.99 0.67 0.46 0.46 0.77 0.81 0.92 0.89 1.10 1.08 1.04 1.25 1.54 1.58 1.26 1.09 1.18 1.15 0.68 0.81 0.85 0.82 0.70 0.47
0.12 0.13 0.22 0.32 0.48 0.32 0.49 0.37 0.31 0.28 0.31 0.31 0.54 0.66 0.76 0.79 0.76 1.11 0.98 1.27 1.54 1.55 1.49 1.18 1.27 1.28 1.20 0.91 0.72 0.63 0.59 0.55
0.09 0.15 0.33 0.49 0.73 0.59 0.78 0.73 0.46 0.45 0.45 0.45 0.59 0.72 0.65 0.86 0.97 0.94 1.19 1.46 1.57 1.65 1.84 1.67 1.42 1.23 1.01 0.84 0.88 0.83 0.64 0.67
0.12 0.17 0.22 0.47 0.66 1.05 1.36 1.45 1.23 1.08 0.64 0.41 0.57 0.77 0.69 0.88 1.18 1.36 1.26 1.33 1.69 1.71 1.89 1.85 1.88 1.75 1.44 1.15 0.80 0.81 0.70 0.71
0.18 0.12 0.19 0.26 0.48 0.85 1.17 1.77 2.19 1.92 1.49 1.20 1.02 0.92 0.69 0.76 1.06 1.46 1.58 1.56 1.74 2.05 1.96 2.07 2.07 1.99 1.88 1.63 1.30 0.97 0.72 0.75
0.39 0.22 0.28 0.34 0.51 0.86 0.99 1.12 1.53 2.35 2.49 2.59 2.34 1.78 1.29 1.19 1.45 1.54 1.70 1.69 1.71 1.80 2.15 2.24 2.33 2.50 2.20 2.06 1.74 1.27 1.08 1.13

GFSFLT2_prec_precacc_234.txt.gz
Total_Precipitation_Accumulation
6.13 3.90 3.38 3.61 2.47 2.38 3.33 3.33 2.82 1.83 1.41 1.21 1.34 1.00 0.86 0.72 0.55 0.51 0.46 0.43 0.54 0.56 0.66 0.68 0.55 0.42 0.34 0.32 0.38 0.41 0.43 0.59
7.15 5.19 3.21 1.77 2.50 2.26 2.26 3.07 3.69 2.41 1.93 1.76 1.43 1.27 1.06 0.69 0.51 0.55 0.74 0.70 0.46 0.33 0.44 0.52 0.47 0.33 0.27 0.32 0.41 0.65 0.44 0.51
6.69 6.44 4.00 2.74 2.50 2.37 1.82 1.71 2.73 3.67 2.49 2.07 1.77 1.04 1.04 0.80 0.83 0.79 0.81 0.72 0.71 0.64 0.54 0.47 0.43 0.32 0.30 0.55 0.50 0.42 0.51 0.42
2.97 3.29 3.05 2.36 3.01 3.06 1.72 1.41 1.18 2.66 2.94 2.18 1.60 1.02 1.03 0.95 0.74 0.78 0.84 0.76 0.84 0.81 0.77 0.61 0.44 0.23 0.20 0.28 0.31 0.69 0.77 0.78
1.27 1.54 1.49 1.52 2.03 1.65 1.54 1.32 1.12 1.41 2.57 2.03 1.33 0.92 0.87 1.17 0.63 0.70 1.07 1.14 0.89 0.73 0.56 0.51 0.39 0.31 0.16 0.15 0.24 0.32 0.41 0.72
1.04 0.82 1.04 1.19 1.44 1.46 1.12 1.14 1.08 1.04 1.87 1.85 1.27 0.91 0.63 0.78 0.42 0.48 1.07 1.05 0.79 0.62 0.39 0.42 0.46 0.47 0.30 0.32 0.31 0.40 0.33 0.60
0.98 0.78 0.82 0.86 0.72 0.83 0.80 0.74 0.96 0.92 1.02 1.58 1.35 0.81 0.47 0.54 0.46 0.50 0.89 0.84 0.89 0.54 0.48 0.56 0.53 0.54 0.46 0.33 0.22 0.47 0.47 0.57
1.01 1.22 0.86 0.90 0.68 0.63 0.63 0.58 0.80 1.06 0.88 1.10 1.58 0.97 0.63 0.68 0.59 0.50 0.76 0.79 0.73 0.60 0.34 0.49 0.63 0.54 0.52 0.35 0.11 0.33 0.47 0.70
1.14 1.62 1.20 1.06 0.63 0.69 0.69 0.74 0.71 0.82 0.94 1.22 1.35 1.06 0.81 0.71 0.76 0.61 0.67 0.80 0.53 0.55 0.53 0.53 0.54 0.55 0.48 0.46 0.27 0.17 0.22 0.51
1.32 1.42 0.99 1.08 0.86 0.97 1.37 0.78 0.55 0.69 0.80 0.93 1.11 1.13 0.89 0.82 0.81 0.72 0.78 0.76 0.51 0.44 0.34 0.44 0.48 0.43 0.36 0.35 0.29 0.16 0.10 0.22
0.89 0.98 0.99 1.34 1.66 1.73 1.26 0.71 0.50 0.73 0.68 0.69 0.91 1.26 0.94 0.84 0.87 0.83 0.87 0.80 0.54 0.43 0.33 0.36 0.40 0.38 0.31 0.35 0.38 0.25 0.15 0.16
0.76 0.84 1.33 1.83 1.62 0.88 0.62 0.64 0.63 0.72 0.58 0.61 0.78 1.41 1.14 1.03 1.02 1.01 1.08 0.78 0.58 0.63 0.49 0.48 0.40 0.30 0.36 0.39 0.30 0.31 0.29 0.29
0.70 0.86 0.80 0.63 0.49 0.50 0.50 0.49 0.41 0.43 0.38 0.56 0.75 1.21 1.39 1.13 1.11 1.10 1.25 0.98 0.79 0.66 0.67 0.74 0.61 0.57 0.77 0.71 0.46 0.43 0.43 0.37
0.41 0.34 0.23 0.21 0.19 0.31 0.37 0.42 0.34 0.30 0.37 0.47 1.04 1.13 1.21 1.16 1.12 0.99 1.08 1.31 1.30 1.18 0.94 0.87 0.65 0.74 0.75 0.77 0.89 0.91 0.41 0.34
0.09 0.16 0.13 0.24 0.27 0.35 0.54 0.90 1.00 0.69 0.48 0.47 0.78 0.82 0.93 0.90 1.13 1.12 1.05 1.31 1.63 1.68 1.33 1.14 1.21 1.15 0.68 0.81 0.85 0.82 0.70 0.47
0.12 0.13 0.22 0.32 0.48 0.32 0.49 0.38 0.32 0.28 0.32 0.33 0.56 0.67 0.76 0.81 0.78 1.14 1.02 1.27 1.59 1.62 1.56 1.25 1.30 1.28 1.20 0.91 0.72 0.63 0.59 0.55
0.09 0.15 0.33 0.49 0.73 0.59 0.78 0.73 0.47 0.45 0.46 0.46 0.60 0.74 0.66 0.88 1.00 0.96 1.20 1.47 1.57 1.71 1.89 1.71 1.47 1.26 1.01 0.84 0.88 0.83 0.64 0.67
0.12 0.17 0.22 0.47 0.66 1.05 1.36 1.46 1.24 1.09 0.66 0.42 0.59 0.80 0.74 0.90 1.19 1.38 1.27 1.33 1.69 1.74 2.02 1.92 1.97 1.84 1.49 1.15 0.80 0.81 0.70 0.71
0.18 0.12 0.19 0.26 0.49 0.86 1.17 1.78 2.21 1.95 1.51 1.22 1.06 0.96 0.74 0.78 1.08 1.47 1.58 1.57 1.75 2.06 2.00 2.11 2.11 2.01 1.93 1.67 1.32 0.97 0.73 0.76
0.39 0.22 0.28 0.34 0.52 0.88 1.03 1.18 1.58 2.39 2.55 2.69 2.52 1.93 1.35 1.27 1.59 1.64 1.75 1.72 1.79 1.87 2.19 2.32 2.41 2.53 2.24 2.11 1.75 1.28 1.08 1.13

GFSFLT2_prec_precacc_240.txt.gz
Total_Precipitation_Accumulation
6.13 3.90 3.38 3.62 2.47 2.38 3.33 3.34 2.82 1.83 1.41 1.21 1.34 1.00 0.86 0.72 0.55 0.51 0.46 0.43 0.54 0.56 0.66 0.68 0.55 0.42 0.34 0.32 0.38 0.41 0.43 0.59
7.15 5.19 3.22 1.79 2.51 2.26 2.26 3.09 3.70 2.41 1.93 1.76 1.43 1.28 1.06 0.69 0.51 0.55 0.74 0.70 0.46 0.33 0.44 0.52 0.47 0.33 0.27 0.32 0.41 0.65 0.44 0.51
6.69 6.44 4.01 2.76 2.52 2.38 1.82 1.74 2.78 3.67 2.49 2.07 1.77 1.04 1.04 0.80 0.83 0.79 0.81 0.72 0.71 0.64 0.54 0.47 0.43 0.32 0.30 0.55 0.50 0.42 0.51 0.42
2.97 3.29 3.06 2.38 3.03 3.07 1.73 1.41 1.19 2.66 2.94 2.18 1.60 1.02 1.03 0.95 0.74 0.78 0.84 0.76 0.84 0.81 0.77 0.61 0.44 0.23 0.20 0.28 0.31 0.69 0.77 0.78
1.27 1.54 1.50 1.54 2.05 1.65 1.54 1.32 1.12 1.42 2.58 2.04 1.33 0.92 0.87 1.17 0.64 0.70 1.07 1.14 0.89 0.73 0.56 0.51 0.39 0.31 0.16 0.15 0.24 0.32 0.41 0.72
1.04 0.83 1.05 1.20 1.46 1.47 1.12 1.14 1.09 1.08 1.88 1.86 1.27 0.91 0.63 0.78 0.42 0.48 1.07 1.05 0.79 0.62 0.39 0.42 0.46 0.47 0.30 0.32 0.31 0.40 0.33 0.60
0.98 0.78 0.82 0.88 0.76 0.84 0.80 0.74 0.96 0.92 1.03 1.58 1.35 0.81 0.47 0.54 0.46 0.50 0.89 0.84 0.89 0.54 0.48 0.56 0.53 0.54 0.46 0.33 0.22 0.47 0.47 0.57
1.01 1.22 0.86 0.91 0.70 0.65 0.63 0.58 0.80 1.06 0.88 1.10 1.58 0.97 0.63 0.68 0.59 0.50 0.76 0.80 0.73 0.60 0.34 0.49 0.63 0.54 0.52 0.35 0.11 0.33 0.47 0.70
1.14 1.62 1.21 1.07 0.66 0.70 0.69 0.74 0.71 0.82 0.94 1.22 1.35 1.06 0.81 0.71 0.76 0.61 0.68 0.85 0.54 0.55 0.53 0.53 0.54 0.55 0.48 0.46 0.27 0.17 0.22 0.51
1.32 1.42 1.00 1.11 0.89 0.99 1.38 0.78 0.55 0.69 0.80 0.93 1.11 1.13 0.89 0.83 0.84 0.73 0.84 0.82 0.52 0.44 0.34 0.44 0.48 0.43 0.36 0.35 0.29 0.16 0.10 0.22
0.89 0.98 1.00 1.35 1.68 1.77 1.32 0.73 0.50 0.73 0.68 0.69 0.91 1.26 0.94 0.86 0.98 0.90 0.95 0.87 0.60 0.44 0.33 0.36 0.40 0.38 0.31 0.35 0.38 0.25 0.15 0.16
0.76 0.84 1.33 1.83 1.63 0.94 0.72 0.70 0.65 0.72 0.59 0.61 0.78 1.41 1.14 1.14 1.21 1.22 1.20 0.86 0.65 0.65 0.49 0.48 0.40 0.30 0.36 0.39 0.30 0.31 0.29 0.29
0.70 0.86 0.80 0.63 0.50 0.52 0.51 0.51 0.43 0.45 0.39 0.57 0.76 1.23 1.42 1.21 1.34 1.35 1.45 1.10 0.89 0.71 0.69 0.74 0.61 0.57 0.77 0.71 0.46 0.43 0.43 0.37
0.41 0.34 0.23 0.22 0.20 0.31 0.37 0.44 0.36 0.33 0.43 0.49 1.05 1.15 1.26 1.23 1.37 1.27 1.30 1.52 1.40 1.22 0.97 0.88 0.65 0.74 0.75 0.77 0.89 0.91 0.41 0.34
0.09 0.16 0.13 0.24 0.27 0.35 0.54 0.91 1.01 0.70 0.49 0.49 0.78 0.83 0.95 0.99 1.24 1.35 1.28 1.61 1.80 1.78 1.37 1.15 1.22 1.16 0.68 0.81 0.85 0.82 0.70 0.47
0.12 0.13 0.22 0.32 0.48 0.32 0.49 0.38 0.33 0.29 0.32 0.34 0.57 0.69 0.78 0.88 0.90 1.33 1.23 1.52 1.80 1.76 1.67 1.30 1.31 1.29 1.20 0.91 0.72 0.63 0.59 0.55
0.09 0.15 0.33 0.49 0.73 0.60 0.78 0.73 0.47 0.46 0.47 0.48 0.63 0.77 0.73 0.99 1.10 1.04 1.39 1.66 1.78 1.92 1.95 1.75 1.48 1.26 1.02 0.84 0.88 0.83 0.64 0.67
0.12 0.17 0.22 0.47 0.67 1.10 1.41 1.48 1.25 1.09 0.66 0.44 0.64 0.86 0.82 0.99 1.27 1.42 1.35 1.50 1.81 1.94 2.26 2.04 2.02 1.87 1.51 1.16 0.80 0.81 0.70 0.71
0.18 0.12 0.19 0.26 0.49 0.87 1.18 1.79 2.22 1.96 1.51 1.24 1.11 1.01 0.81 0.83 1.11 1.50 1.62 1.63 1.82 2.24 2.17 2.23 2.20 2.05 1.97 1.71 1.34 0.98 0.73 0.76
0.39 0.22 0.28 0.34 0.52 0.88 1.03 1.19 1.60 2.43 2.58 2.73 2.55 1.96 1.39 1.36 1.70 1.71 1.85 1.86 1.95 2.00 2.36 2.58 2.61 2.64 2.30 2.17 1.80 1.34 1.12 1.16